Change the Weather History Date:

Wednesday, December 26, 2012

  Actual Average Record
Temperature  
Mean Temperature 54 °F -  
Max Temperature 63 °F 58 °F 68 °F (2010)
Min Temperature 44 °F 46 °F 42 °F (1997)
Degree Days  
Heating Degree Days 12    
Growing Degree Days 4 (Base 50)    
Moisture  
Dew Point 48 °F    
Average Humidity 83    
Maximum Humidity 100    
Minimum Humidity 57    
Precipitation  
Precipitation 0.00 in 0.18 in - ()
Sea Level Pressure  
Sea Level Pressure 30.21 in    
Wind  
Wind Speed 2 mph ()    
Max Wind Speed 9 mph    
Max Gust Speed -    
Visibility 6.2 miles    
Events      
Averages and records for this station are not official NWS values.
T = Trace of Precipitation, MM = Missing Value Source: Averaged Metar Reports

Daily Weather History Graph

Daily Weather History Graph

Search for Another Location

Airport or City:

Trip Planner

Search our weather history database for the weather conditions in past years. The results will help you decide how hot, cold, wet, or windy it might be!

Date:

Astronomy

Dec. 26, 2012 Rise Set
Actual Time 7:31 AM EET 5:17 PM EET
Civil Twilight 7:02 AM EET 5:45 PM EET
Nautical Twilight 6:30 AM EET 6:17 PM EET
Astronomical Twilight 5:59 AM EET 6:48 PM EET
Moon 3:54 PM EET (12/26) 5:39 AM EET (12/26)
Length of Visible Light 10h 42m
Length of Day
9h 45m
Waxing Gibbous, 96% of the Moon is Illuminated
Dec 26
Waxing Gibbous
Dec 28
Full
Jan 5
Last Quarter
Jan 11
New
Jan 19
First Quarter

Hourly Weather History & Observations

Time (EET) Temp. Windchill Dew Point Humidity Pressure Visibility Wind Dir Wind Speed Gust Speed Precip Events Conditions
12:20 AM 46.4 °F - 44.6 °F 93% 30.24 in 6.2 mi Calm Calm - N/A   Partly Cloudy
12:50 AM 46.4 °F - 44.6 °F 93% 30.24 in 6.2 mi Calm Calm - N/A   Partly Cloudy
1:20 AM 46.4 °F - 44.6 °F 93% 30.21 in 6.2 mi Calm Calm - N/A   Partly Cloudy
1:50 AM 44.6 °F - 42.8 °F 93% 30.21 in 6.2 mi Calm Calm - N/A   Partly Cloudy
2:00 AM 45 °F - 43 °F 90% 30.25 in 6 mi Calm Calm - -   Scattered Clouds
2:20 AM 44.6 °F - 42.8 °F 93% 30.21 in 6.2 mi Calm Calm - N/A   Partly Cloudy
2:50 AM 44.6 °F - 42.8 °F 93% 30.21 in 6.2 mi Calm Calm - N/A   Partly Cloudy
3:20 AM 44.6 °F - 39.2 °F 81% 30.21 in 6.2 mi Calm Calm - N/A   Partly Cloudy
3:50 AM 44.6 °F - 42.8 °F 93% 30.21 in 6.2 mi Calm Calm - N/A   Partly Cloudy
4:20 AM 44.6 °F 42.2 °F 42.8 °F 93% 30.21 in 6.2 mi West 4.6 mph - N/A   Partly Cloudy
4:50 AM 46.4 °F 44.3 °F 42.8 °F 87% 30.21 in 6.2 mi West 4.6 mph - N/A   Partly Cloudy
5:20 AM 46.4 °F 43.5 °F 42.8 °F 87% 30.21 in 6.2 mi West 5.8 mph - N/A   Partly Cloudy
5:50 AM 46.4 °F 43.5 °F 42.8 °F 87% 30.21 in 6.2 mi WNW 5.8 mph - N/A   Partly Cloudy
6:20 AM 46.4 °F - 42.8 °F 87% 30.21 in 6.2 mi Calm Calm - N/A   Partly Cloudy
6:50 AM 46.4 °F - 42.8 °F 87% 30.21 in 6.2 mi Calm Calm - N/A   Partly Cloudy
7:20 AM 46.4 °F - 44.6 °F 93% 30.21 in 6.2 mi Calm Calm - N/A   Partly Cloudy
7:50 AM 46.4 °F - 42.8 °F 87% 30.21 in 6.2 mi Calm Calm - N/A   Partly Cloudy
8:20 AM 48.2 °F - 42.8 °F 82% 30.21 in 6.2 mi Calm Calm - N/A   Partly Cloudy
8:50 AM 51.8 °F - 46.4 °F 82% 30.24 in 6.2 mi Calm Calm - N/A   Partly Cloudy
9:20 AM 53.6 °F - 46.4 °F 77% 30.24 in 6.2 mi Calm Calm - N/A   Partly Cloudy
9:50 AM 55.4 °F - 51.8 °F 88% 30.24 in 6.2 mi WNW 6.9 mph - N/A   Partly Cloudy
10:20 AM 55.4 °F - 51.8 °F 88% 30.24 in 6.2 mi WNW 6.9 mph - N/A   Partly Cloudy
10:50 AM 59.0 °F - 48.2 °F 67% 30.24 in 6.2 mi West 4.6 mph - N/A   Partly Cloudy
11:20 AM 59.0 °F - 48.2 °F 67% 30.24 in 6.2 mi WNW 4.6 mph - N/A   Partly Cloudy
11:50 AM 60.8 °F - 48.2 °F 63% 30.24 in 6.2 mi WNW 6.9 mph - N/A   Partly Cloudy
12:20 PM 60.8 °F - 48.2 °F 63% 30.24 in 6.2 mi West 6.9 mph - N/A   Partly Cloudy
12:50 PM 62.6 °F - 50.0 °F 63% 30.21 in 6.2 mi NW 4.6 mph - N/A   Partly Cloudy
1:20 PM 62.6 °F - 50.0 °F 63% 30.21 in 6.2 mi WNW 6.9 mph - N/A   Mostly Cloudy
1:50 PM 62.6 °F - 51.8 °F 68% 30.18 in 6.2 mi NW 4.6 mph - N/A   Mostly Cloudy
2:00 PM 63 °F - 52 °F 57% 30.20 in 6 mi NW 4.6 mph - -   Scattered Clouds
2:20 PM 62.6 °F - 51.8 °F 68% 30.18 in 6.2 mi NW 4.6 mph - N/A   Mostly Cloudy
2:50 PM 62.6 °F - 51.8 °F 68% 30.18 in 6.2 mi Calm Calm - N/A   Mostly Cloudy
3:50 PM 62.6 °F - 51.8 °F 68% 30.18 in 6.2 mi Calm Calm - N/A   Mostly Cloudy
4:20 PM 60.8 °F - 53.6 °F 77% 30.18 in 6.2 mi Calm Calm - N/A   Mostly Cloudy
4:50 PM 60.8 °F - 51.8 °F 72% 30.18 in 6.2 mi Calm Calm - N/A   Mostly Cloudy
5:50 PM 57.2 °F - 50.0 °F 77% 30.18 in 6.2 mi West 6.9 mph - N/A   Mostly Cloudy
6:20 PM 57.2 °F - 50.0 °F 77% 30.18 in 6.2 mi West 9.2 mph - N/A   Scattered Clouds
6:50 PM 55.4 °F - 51.8 °F 88% 30.18 in 6.2 mi West 5.8 mph - N/A   Scattered Clouds
7:20 PM 55.4 °F - 51.8 °F 88% 30.18 in 6.2 mi WNW 4.6 mph - N/A   Scattered Clouds
7:50 PM 53.6 °F - 51.8 °F 94% 30.18 in 6.2 mi Calm Calm - N/A   Mostly Cloudy
8:00 PM 54 °F - 51 °F 86% 30.21 in 6 mi Calm Calm - -   Scattered Clouds
8:20 PM 53.6 °F - 51.8 °F 94% 30.18 in 6.2 mi Calm Calm - N/A   Mostly Cloudy
8:50 PM 53.6 °F - 50.0 °F 88% 30.18 in 6.2 mi Calm Calm - N/A   Mostly Cloudy
9:20 PM 53.6 °F - 50.0 °F 88% 30.18 in 6.2 mi Calm Calm - N/A   Mostly Cloudy
9:50 PM 50.0 °F - 50.0 °F 100% 30.21 in 6.2 mi Calm Calm - N/A   Scattered Clouds
10:20 PM 50.0 °F - 50.0 °F 100% 30.21 in 6.2 mi Calm Calm - N/A   Scattered Clouds
10:50 PM 48.2 °F - 48.2 °F 100% 30.21 in 6.2 mi Calm Calm - N/A   Scattered Clouds
11:20 PM 48.2 °F - 48.2 °F 100% 30.21 in 6.2 mi Calm Calm - N/A   Scattered Clouds
11:50 PM 48.2 °F - 48.2 °F 100% 30.21 in 6.2 mi Calm Calm - N/A   Scattered Clouds